Torna al catalogo

GALILEO-PFM

AttivoNavigazioneMEO
NORAD 37846·PAYLOAD·🇪🇺 EU

Lanciato Oct 21, 2011 da Guiana Space Centre

Loading…

Prossimi Passaggi (prossime 24 ore)

TLE

AggiornatoSource: CelesTrak SupGP

Epoca: Sep 14, 2026, 23:59 UTC

1 37846C 11060A   26257.99979167  .00000000  00000+0  00000+0 0  2570
2 37846  56.9577 339.3256 0000327 350.3814 257.5188  1.70476020    10

Traccia GALILEO-PFM in tempo reale con AllMySat

Download on the App Store